Terug naar catalogus

STARLINK-34460

ActiefCommunicatieVLEO
NORAD 66099·PAYLOAD·🇺🇸 United States

Gelanceerd Oct 19, 2025 vanaf Vandenberg Space Force Base

Loading…

Volgende Passages (komende 24 uur)

TLE

VersSource: CelesTrak SupGP

Epoch: Sep 14, 2026, 21:24 UTC

1 66099C 25236P   26257.89215278  .00011721  00000+0  34643-3 0  2573
2 66099  53.1592 303.8966 0001235  86.4545  89.9517 15.34373185    15

Volg STARLINK-34460 in realtime met AllMySat

Download on the App Store